Hourly Weather Barra de Santo Antonio

Today, 19 April, Monday

Time Temperature Precipitation Wind Pressure Humidity
00:00 +25°C° 0.3 mm 2 mps 757 mmHg 95%
01:00 +25°C° 0.3 mm 2 mps 757 mmHg 95%
02:00 +25°C° 0.1 mm 2 mps 756 mmHg 95%
03:00 +25°C° 0.1 mm 2 mps 756 mmHg 94%
04:00 +25°C° 0.1 mm 1 mps 756 mmHg 94%
05:00 +25°C° 0 mm 1 mps 756 mmHg 94%
06:00 +25°C° 0 mm 1 mps 756 mmHg 94%
07:00 +25°C° 0 mm 1 mps 757 mmHg 94%
08:00 +27°C° 0.1 mm 1 mps 757 mmHg 87%
09:00 +28°C° 0.1 mm 2 mps 757 mmHg 80%
10:00 +30°C° 0.1 mm 2 mps 758 mmHg 73%
11:00 +30°C° 0.2 mm 2 mps 757 mmHg 71%
12:00 +31°C° 0.2 mm 3 mps 757 mmHg 70%
13:00 +31°C° 0.2 mm 3 mps 756 mmHg 68%
14:00 +31°C° 0.1 mm 3 mps 756 mmHg 68%
15:00 +31°C° 0.1 mm 3 mps 756 mmHg 68%
16:00 +31°C° 0.1 mm 3 mps 755 mmHg 69%
17:00 +29°C° 0 mm 3 mps 755 mmHg 76%
18:00 +28°C° 0 mm 3 mps 756 mmHg 82%
19:00 +26°C° 0 mm 3 mps 756 mmHg 89%
20:00 +26°C° 0.1 mm 3 mps 756 mmHg 90%
21:00 +26°C° 0.1 mm 3 mps 757 mmHg 91%
22:00 +26°C° 0.1 mm 3 mps 757 mmHg 92%
23:00 +25°C° 0.1 mm 3 mps 757 mmHg 93%

Tomorrow, 20 April, Tuesday

Time Temperature Precipitation Wind Pressure Humidity
00:00 +25°C° 0.1 mm 2 mps 757 mmHg 93%
01:00 +25°C° 0.1 mm 2 mps 756 mmHg 94%
02:00 +25°C° 0.2 mm 2 mps 756 mmHg 95%
03:00 +25°C° 0.2 mm 2 mps 756 mmHg 95%
04:00 +25°C° 0.2 mm 2 mps 756 mmHg 96%
05:00 +25°C° 0 mm 2 mps 756 mmHg 95%
06:00 +25°C° 0 mm 2 mps 756 mmHg 95%
07:00 +25°C° 0 mm 2 mps 756 mmHg 94%
08:00 +27°C° 0 mm 2 mps 757 mmHg 86%
09:00 +29°C° 0 mm 2 mps 757 mmHg 77%
10:00 +31°C° 0 mm 2 mps 758 mmHg 68%
11:00 +30°C° 0.3 mm 3 mps 757 mmHg 71%
12:00 +30°C° 0.3 mm 3 mps 757 mmHg 73%
13:00 +30°C° 0.3 mm 3 mps 756 mmHg 76%
14:00 +30°C° 0.3 mm 3 mps 756 mmHg 76%
15:00 +30°C° 0.3 mm 3 mps 755 mmHg 76%
16:00 +30°C° 0.3 mm 3 mps 755 mmHg 76%
17:00 +29°C° 0 mm 3 mps 755 mmHg 81%
18:00 +28°C° 0 mm 3 mps 756 mmHg 86%
19:00 +27°C° 0 mm 3 mps 756 mmHg 91%
20:00 +26°C° 0.1 mm 3 mps 756 mmHg 92%
21:00 +26°C° 0.1 mm 3 mps 757 mmHg 93%
22:00 +26°C° 0.1 mm 3 mps 757 mmHg 94%
23:00 +25°C° 0 mm 3 mps 757 mmHg 94%

Day after tomorrow, 21 April, Wednesday

Time Temperature Precipitation Wind Pressure Humidity
00:00 +25°C° 0 mm 3 mps 757 mmHg 94%
01:00 +25°C° 0 mm 3 mps 757 mmHg 95%
02:00 +25°C° 0 mm 3 mps 756 mmHg 95%
03:00 +24°C° 0 mm 3 mps 756 mmHg 95%
04:00 +24°C° 0 mm 3 mps 756 mmHg 95%
05:00 +24°C° 0 mm 3 mps 756 mmHg 95%
06:00 +24°C° 0 mm 3 mps 757 mmHg 95%
07:00 +24°C° 0 mm 3 mps 757 mmHg 94%
08:00 +26°C° 0 mm 3 mps 757 mmHg 85%
09:00 +28°C° 0 mm 3 mps 758 mmHg 76%
10:00 +30°C° 0 mm 3 mps 758 mmHg 67%
11:00 +31°C° 0 mm 3 mps 758 mmHg 62%
12:00 +33°C° 0 mm 3 mps 757 mmHg 56%
13:00 +34°C° 0 mm 3 mps 756 mmHg 51%
14:00 +34°C° 0 mm 3 mps 756 mmHg 53%
15:00 +33°C° 0 mm 3 mps 756 mmHg 56%
16:00 +33°C° 0 mm 4 mps 755 mmHg 59%
17:00 +30°C° 0 mm 4 mps 756 mmHg 68%
18:00 +28°C° 0 mm 4 mps 756 mmHg 78%
19:00 +26°C° 0 mm 4 mps 757 mmHg 87%
20:00 +26°C° 0 mm 3 mps 757 mmHg 88%
21:00 +26°C° 0 mm 3 mps 757 mmHg 89%
22:00 +26°C° 0 mm 3 mps 758 mmHg 90%
23:00 +25°C° 0 mm 3 mps 758 mmHg 91%

22 April, Thursday

Time Temperature Precipitation Wind Pressure Humidity
00:00 +25°C° 0 mm 2 mps 758 mmHg 92%
01:00 +25°C° 0 mm 2 mps 757 mmHg 93%
02:00 +25°C° 0 mm 2 mps 757 mmHg 93%
03:00 +25°C° 0 mm 1 mps 757 mmHg 94%
04:00 +24°C° 0 mm 1 mps 757 mmHg 94%
05:00 +25°C° 0 mm 1 mps 757 mmHg 93%
06:00 +25°C° 0 mm 1 mps 757 mmHg 92%
07:00 +25°C° 0 mm 1 mps 757 mmHg 91%
08:00 +27°C° 0.1 mm 1 mps 758 mmHg 83%
09:00 +29°C° 0.1 mm 1 mps 758 mmHg 76%
10:00 +31°C° 0.1 mm 1 mps 758 mmHg 68%
11:00 +31°C° 0.2 mm 2 mps 758 mmHg 66%
12:00 +32°C° 0.2 mm 2 mps 757 mmHg 64%
13:00 +33°C° 0.2 mm 3 mps 757 mmHg 62%
14:00 +33°C° 0 mm 3 mps 756 mmHg 63%
15:00 +33°C° 0 mm 3 mps 756 mmHg 64%
16:00 +32°C° 0 mm 4 mps 755 mmHg 65%
17:00 +30°C° 0 mm 3 mps 756 mmHg 73%
18:00 +28°C° 0 mm 3 mps 756 mmHg 81%
19:00 +27°C° 0 mm 3 mps 757 mmHg 89%
20:00 +26°C° 0 mm 3 mps 757 mmHg 90%
21:00 +26°C° 0 mm 3 mps 757 mmHg 91%
22:00 +26°C° 0 mm 3 mps 758 mmHg 92%
23:00 +26°C° 0 mm 2 mps 758 mmHg 92%

23 April, Friday

Time Temperature Precipitation Wind Pressure Humidity
00:00 +25°C° 0 mm 2 mps 757 mmHg 93%
01:00 +25°C° 0 mm 2 mps 757 mmHg 94%
02:00 +25°C° 0.3 mm 2 mps 757 mmHg 93%
03:00 +26°C° 0.3 mm 2 mps 757 mmHg 92%
04:00 +26°C° 0.3 mm 2 mps 756 mmHg 90%
05:00 +26°C° 0.1 mm 2 mps 757 mmHg 91%
06:00 +26°C° 0.1 mm 1 mps 757 mmHg 91%
07:00 +26°C° 0.1 mm 1 mps 757 mmHg 92%
08:00 +28°C° 0 mm 1 mps 758 mmHg 82%
09:00 +30°C° 0 mm 1 mps 758 mmHg 73%
10:00 +31°C° 0 mm 2 mps 758 mmHg 64%
11:00 +32°C° 0 mm 2 mps 758 mmHg 61%
12:00 +32°C° 0 mm 2 mps 757 mmHg 58%
13:00 +34°C° 0 mm 2 mps 757 mmHg 54%
14:00 +33°C° 0.1 mm 3 mps 756 mmHg 58%
15:00 +33°C° 0.1 mm 3 mps 756 mmHg 62%
16:00 +31°C° 0.1 mm 3 mps 756 mmHg 66%
17:00 +30°C° 0.3 mm 3 mps 756 mmHg 75%
18:00 +28°C° 0.3 mm 3 mps 756 mmHg 83%
19:00 +26°C° 0.3 mm 3 mps 757 mmHg 92%
20:00 +26°C° 0.4 mm 3 mps 757 mmHg 93%
21:00 +26°C° 0.4 mm 2 mps 757 mmHg 93%
22:00 +26°C° 0.4 mm 2 mps 758 mmHg 94%
23:00 +26°C° 0.2 mm 2 mps 757 mmHg 94%

24 April, Saturday

Time Temperature Precipitation Wind Pressure Humidity
00:00 +26°C° 0.2 mm 2 mps 757 mmHg 94%
01:00 +26°C° 0.2 mm 2 mps 757 mmHg 94%
02:00 +26°C° 0.3 mm 2 mps 756 mmHg 94%
03:00 +26°C° 0.3 mm 2 mps 756 mmHg 94%
04:00 +25°C° 0.3 mm 2 mps 756 mmHg 94%
05:00 +26°C° 0.4 mm 2 mps 756 mmHg 94%
06:00 +26°C° 0.4 mm 2 mps 756 mmHg 93%
07:00 +26°C° 0.4 mm 2 mps 757 mmHg 93%
08:00 +27°C° 0 mm 2 mps 757 mmHg 84%
09:00 +29°C° 0 mm 2 mps 757 mmHg 76%
10:00 +31°C° 0 mm 2 mps 758 mmHg 67%
11:00 +31°C° 0 mm 2 mps 757 mmHg 63%
12:00 +32°C° 0 mm 2 mps 757 mmHg 60%
13:00 +34°C° 0 mm 3 mps 756 mmHg 56%
14:00 +33°C° 0.1 mm 3 mps 756 mmHg 59%
15:00 +33°C° 0.1 mm 3 mps 756 mmHg 62%
16:00 +31°C° 0.1 mm 3 mps 755 mmHg 65%
17:00 +30°C° 0.2 mm 3 mps 756 mmHg 74%
18:00 +28°C° 0.2 mm 3 mps 756 mmHg 83%
19:00 +26°C° 0.2 mm 2 mps 756 mmHg 91%
20:00 +26°C° 0.1 mm 2 mps 756 mmHg 92%
21:00 +26°C° 0.1 mm 2 mps 757 mmHg 92%
22:00 +26°C° 0.1 mm 2 mps 757 mmHg 93%
23:00 +26°C° 0.1 mm 2 mps 757 mmHg 93%
Show more